Find Starlink 3665

NORAD ID: 52098 Int'l Des: 2022-029 Owner: SPXS Country: US Constellation: starlink operational
LEOCIRCULAR

現在のビュー

3D地球を読み込み中...

About Starlink 3665

Starlink 3665 (NORAD 52098) is a starlink constellation satellite (v1.5) launched Mar 19, 2022 by SPXS of US. It operates in LEO, CIRCULAR orbit with a mass of 297.00 kg.

次回通過

Passes for default location (London). Set your location on the main map for personalized predictions.

高度履歴

Loading altitude history...

軌道要素

1 52098U 22029L 26263.55288870 -.00000386 00000-0 -26171-6 0 9993
2 52098 53.1603 281.8136 0002607 143.8408 216.2771 15.34384015250249
Epoch: Sep 20, 2026 • Age: 15 hours

現在のステータス

高度 482.3 km
遠地点 / 近地点 N/A
速度 7.62 km/s
衛星直下点 -53.24°S, 124.98°E
打ち上げ日 Mar 19, 2022
運用期間 4.5 years
タイプ internet

技術仕様

分類 Payload
質量 297.00 kg
乾燥質量 275.00 kg
長さ 0.20 m
スパン 9.00 m
形状 ? Box + pan
製造者 SPXS
バスタイプ Starlink
フェーズステータス In Orbit
所有者/国 SPXS/US

Most Searched